Time,TemperatureF,DewpointF,PressureIn,WindDirection,WindDirectionDegrees,WindSpeedMPH,WindSpeedGustMPH,Humidity,HourlyPrecipIn,Conditions,Clouds,dailyrainin,SoftwareType,DateUTC
2013-09-24 00:02:00,69.0,54.0,29.80,ESE,118,0.0,1.0,59,0.00,,,0.00,weatherlink.com 1.10,2013-09-24 05:02:00,
2013-09-24 00:17:00,68.5,54.0,29.80,SSE,161,0.0,1.0,60,0.00,,,0.00,weatherlink.com 1.10,2013-09-24 05:17:00,
2013-09-24 00:32:00,67.9,54.0,29.80,SSE,161,0.0,0.0,62,0.00,,,0.00,weatherlink.com 1.10,2013-09-24 05:32:00,
2013-09-24 00:47:00,67.7,55.0,29.81,SSE,161,0.0,0.0,63,0.00,,,0.00,weatherlink.com 1.10,2013-09-24 05:47:00,
2013-09-24 01:02:00,67.1,55.0,29.81,SSE,160,0.0,0.0,65,0.00,,,0.00,weatherlink.com 1.10,2013-09-24 06:02:00,
2013-09-24 01:17:00,66.4,55.0,29.81,SSE,161,0.0,0.0,67,0.00,,,0.00,weatherlink.com 1.10,2013-09-24 06:17:00,
2013-09-24 01:32:00,65.3,55.0,29.82,SSE,160,0.0,0.0,69,0.00,,,0.00,weatherlink.com 1.10,2013-09-24 06:32:00,
2013-09-24 01:47:00,64.5,55.0,29.82,SSE,160,0.0,0.0,71,0.00,,,0.00,weatherlink.com 1.10,2013-09-24 06:47:00,
2013-09-24 02:02:00,63.9,55.0,29.83,SSE,161,0.0,0.0,73,0.00,,,0.00,weatherlink.com 1.10,2013-09-24 07:02:00,
2013-09-24 02:17:00,63.6,55.0,29.83,SSE,161,0.0,0.0,74,0.00,,,0.00,weatherlink.com 1.10,2013-09-24 07:17:00,
2013-09-24 02:32:00,63.4,55.0,29.83,SSE,161,0.0,0.0,75,0.00,,,0.00,weatherlink.com 1.10,2013-09-24 07:32:00,
2013-09-24 02:47:00,63.1,55.0,29.83,SSE,161,0.0,0.0,76,0.00,,,0.00,weatherlink.com 1.10,2013-09-24 07:47:00,
2013-09-24 03:03:00,63.5,56.0,29.84,SSE,160,0.0,0.0,76,0.00,,,0.00,weatherlink.com 1.10,2013-09-24 08:03:00,
2013-09-24 03:18:00,64.5,56.0,29.83,SSE,161,0.0,0.0,75,0.00,,,0.00,weatherlink.com 1.10,2013-09-24 08:18:00,
2013-09-24 03:33:00,64.7,56.0,29.83,SSE,161,0.0,0.0,74,0.00,,,0.00,weatherlink.com 1.10,2013-09-24 08:33:00,
2013-09-24 03:48:00,62.7,54.0,29.84,SSE,161,0.0,0.0,74,0.00,,,0.00,weatherlink.com 1.10,2013-09-24 08:48:00,
2013-09-24 04:03:00,61.1,54.0,29.84,SSE,160,0.0,0.0,78,0.00,,,0.00,weatherlink.com 1.10,2013-09-24 09:03:00,
2013-09-24 04:18:00,60.4,54.0,29.84,SSE,160,0.0,0.0,80,0.00,,,0.00,weatherlink.com 1.10,2013-09-24 09:18:00,
2013-09-24 04:33:00,60.1,55.0,29.84,SSE,160,0.0,0.0,82,0.00,,,0.00,weatherlink.com 1.10,2013-09-24 09:33:00,
2013-09-24 04:48:00,60.3,55.0,29.85,SSE,160,0.0,0.0,82,0.00,,,0.00,weatherlink.com 1.10,2013-09-24 09:48:00,
2013-09-24 05:03:00,60.0,55.0,29.85,SSE,160,0.0,0.0,82,0.00,,,0.00,weatherlink.com 1.10,2013-09-24 10:03:00,
2013-09-24 05:18:00,58.5,54.0,29.87,NNW,334,0.0,5.0,85,0.00,,,0.00,weatherlink.com 1.10,2013-09-24 10:18:00,
2013-09-24 05:33:00,59.3,55.0,29.87,NNW,340,0.0,0.0,84,0.00,,,0.00,weatherlink.com 1.10,2013-09-24 10:33:00,
2013-09-24 05:48:00,60.2,55.0,29.87,NNW,340,0.0,0.0,82,0.00,,,0.00,weatherlink.com 1.10,2013-09-24 10:48:00,
2013-09-24 06:03:00,60.7,55.0,29.87,NNW,340,0.0,0.0,81,0.00,,,0.00,weatherlink.com 1.10,2013-09-24 11:03:00,
2013-09-24 06:18:00,60.9,55.0,29.87,NNW,340,0.0,0.0,81,0.00,,,0.00,weatherlink.com 1.10,2013-09-24 11:18:00,
2013-09-24 06:33:00,60.9,55.0,29.87,NNW,340,0.0,0.0,81,0.00,,,0.00,weatherlink.com 1.10,2013-09-24 11:33:00,
2013-09-24 06:48:00,60.6,55.0,29.88,NNW,340,0.0,0.0,81,0.00,,,0.00,weatherlink.com 1.10,2013-09-24 11:48:00,
2013-09-24 07:03:00,60.2,55.0,29.88,NNW,340,0.0,0.0,82,0.00,,,0.00,weatherlink.com 1.10,2013-09-24 12:03:00,
2013-09-24 07:33:00,60.4,55.0,29.88,NNW,340,0.0,0.0,83,0.00,,,0.00,weatherlink.com 1.10,2013-09-24 12:33:00,
2013-09-24 07:48:00,60.4,55.0,29.89,NNW,340,0.0,0.0,83,0.00,,,0.00,weatherlink.com 1.10,2013-09-24 12:48:00,
2013-09-24 08:03:00,60.7,56.0,29.89,NNW,340,0.0,0.0,84,0.00,,,0.00,weatherlink.com 1.10,2013-09-24 13:03:00,
2013-09-24 08:18:00,62.2,57.0,29.89,NNW,340,0.0,0.0,82,0.00,,,0.00,weatherlink.com 1.10,2013-09-24 13:18:00,
2013-09-24 08:33:00,63.7,57.0,29.89,NNW,340,0.0,0.0,80,0.00,,,0.00,weatherlink.com 1.10,2013-09-24 13:33:00,
2013-09-24 08:48:00,65.4,58.0,29.90,NNW,340,0.0,0.0,76,0.00,,,0.00,weatherlink.com 1.10,2013-09-24 13:48:00,
2013-09-24 09:03:00,67.3,58.0,29.91,NNW,340,0.0,4.0,73,0.00,,,0.00,weatherlink.com 1.10,2013-09-24 14:03:00,
2013-09-24 09:18:00,70.3,60.0,29.91,NNW,327,3.0,5.0,69,0.00,,,0.00,weatherlink.com 1.10,2013-09-24 14:18:00,
2013-09-24 09:33:00,72.7,59.0,29.91,NW,312,4.0,6.0,62,0.00,,,0.00,weatherlink.com 1.10,2013-09-24 14:33:00,
2013-09-24 09:48:00,75.8,58.0,29.91,NW,306,5.0,9.0,55,0.00,,,0.00,weatherlink.com 1.10,2013-09-24 14:48:00,
2013-09-24 10:03:00,77.8,54.0,29.91,NNW,329,8.0,14.0,44,0.00,,,0.00,weatherlink.com 1.10,2013-09-24 15:03:00,
2013-09-24 10:18:00,79.0,53.0,29.91,NW,305,11.0,13.0,40,0.00,,,0.00,weatherlink.com 1.10,2013-09-24 15:18:00,
2013-09-24 10:33:00,79.8,53.0,29.91,NNW,330,9.0,14.0,39,0.00,,,0.00,weatherlink.com 1.10,2013-09-24 15:33:00,
2013-09-24 10:49:00,80.6,53.0,29.91,West,280,11.0,13.0,39,0.00,,,0.00,weatherlink.com 1.10,2013-09-24 15:49:00,
2013-09-24 11:04:00,81.8,52.0,29.91,NW,310,11.0,12.0,36,0.00,,,0.00,weatherlink.com 1.10,2013-09-24 16:04:00,
2013-09-24 11:19:00,82.3,52.0,29.91,North,355,6.0,14.0,35,0.00,,,0.00,weatherlink.com 1.10,2013-09-24 16:19:00,
2013-09-24 11:34:00,83.2,50.0,29.91,NW,324,8.0,15.0,32,0.00,,,0.00,weatherlink.com 1.10,2013-09-24 16:34:00,
2013-09-24 11:49:00,83.8,48.0,29.90,NNW,334,13.0,18.0,29,0.00,,,0.00,weatherlink.com 1.10,2013-09-24 16:49:00,
2013-09-24 12:04:00,84.5,47.0,29.90,NW,318,8.0,17.0,27,0.00,,,0.00,weatherlink.com 1.10,2013-09-24 17:04:00,
2013-09-24 12:19:00,85.2,43.0,29.89,NNW,344,11.0,15.0,23,0.00,,,0.00,weatherlink.com 1.10,2013-09-24 17:19:00,
2013-09-24 12:34:00,85.7,45.0,29.89,WNW,296,14.0,16.0,24,0.00,,,0.00,weatherlink.com 1.10,2013-09-24 17:34:00,
2013-09-24 12:49:00,85.8,45.0,29.89,NW,319,7.0,17.0,24,0.00,,,0.00,weatherlink.com 1.10,2013-09-24 17:49:00,
2013-09-24 13:04:00,86.8,45.0,29.89,NNW,336,11.0,16.0,23,0.00,,,0.00,weatherlink.com 1.10,2013-09-24 18:04:00,
2013-09-24 13:19:00,86.9,45.0,29.88,NW,311,12.0,16.0,23,0.00,,,0.00,weatherlink.com 1.10,2013-09-24 18:19:00,
2013-09-24 13:34:00,86.7,46.0,29.88,WNW,288,7.0,21.0,24,0.00,,,0.00,weatherlink.com 1.10,2013-09-24 18:34:00,
2013-09-24 13:49:00,86.9,44.0,29.87,NNW,327,5.0,20.0,22,0.00,,,0.00,weatherlink.com 1.10,2013-09-24 18:49:00,
2013-09-24 14:04:00,86.8,46.0,29.86,NW,307,5.0,19.0,24,0.00,,,0.00,weatherlink.com 1.10,2013-09-24 19:04:00,
2013-09-24 14:19:00,87.5,47.0,29.86,NW,311,14.0,18.0,24,0.00,,,0.00,weatherlink.com 1.10,2013-09-24 19:19:00,
2013-09-24 14:34:00,88.0,47.0,29.85,WNW,300,5.0,16.0,24,0.00,,,0.00,weatherlink.com 1.10,2013-09-24 19:34:00,
2013-09-24 14:49:00,88.6,46.0,29.85,NW,321,17.0,20.0,23,0.00,,,0.00,weatherlink.com 1.10,2013-09-24 19:49:00,
2013-09-24 15:04:00,89.0,45.0,29.84,NW,321,9.0,20.0,22,0.00,,,0.00,weatherlink.com 1.10,2013-09-24 20:04:00,
2013-09-24 15:19:00,88.7,45.0,29.84,NNW,335,7.0,19.0,22,0.00,,,0.00,weatherlink.com 1.10,2013-09-24 20:19:00,
2013-09-24 15:34:00,89.1,46.0,29.84,WNW,282,10.0,21.0,22,0.00,,,0.00,weatherlink.com 1.10,2013-09-24 20:34:00,
2013-09-24 15:49:00,88.8,45.0,29.83,NNW,331,8.0,16.0,22,0.00,,,0.00,weatherlink.com 1.10,2013-09-24 20:49:00,
2013-09-24 16:04:00,89.5,45.0,29.83,NNW,334,10.0,24.0,21,0.00,,,0.00,weatherlink.com 1.10,2013-09-24 21:04:00,
2013-09-24 16:19:00,89.6,45.0,29.82,West,279,15.0,17.0,21,0.00,,,0.00,weatherlink.com 1.10,2013-09-24 21:19:00,
2013-09-24 16:34:00,89.3,45.0,29.82,WNW,283,13.0,21.0,21,0.00,,,0.00,weatherlink.com 1.10,2013-09-24 21:34:00,
2013-09-24 16:49:00,89.0,44.0,29.82,NW,310,4.0,20.0,21,0.00,,,0.00,weatherlink.com 1.10,2013-09-24 21:49:00,
2013-09-24 17:04:00,89.3,45.0,29.82,NNW,345,12.0,15.0,21,0.00,,,0.00,weatherlink.com 1.10,2013-09-24 22:04:00,
2013-09-24 17:19:00,89.2,44.0,29.82,NW,319,12.0,18.0,21,0.00,,,0.00,weatherlink.com 1.10,2013-09-24 22:19:00,
2013-09-24 17:34:00,89.2,43.0,29.81,WNW,294,12.0,18.0,20,0.00,,,0.00,weatherlink.com 1.10,2013-09-24 22:34:00,
2013-09-24 17:49:00,89.3,42.0,29.81,WNW,292,4.0,16.0,19,0.00,,,0.00,weatherlink.com 1.10,2013-09-24 22:49:00,
2013-09-24 18:04:00,89.3,42.0,29.81,NW,312,9.0,14.0,19,0.00,,,0.00,weatherlink.com 1.10,2013-09-24 23:04:00,
2013-09-24 18:19:00,88.9,42.0,29.81,NW,323,9.0,16.0,19,0.00,,,0.00,weatherlink.com 1.10,2013-09-24 23:19:00,
2013-09-24 18:34:00,88.4,41.0,29.80,WNW,295,6.0,14.0,19,0.00,,,0.00,weatherlink.com 1.10,2013-09-24 23:34:00,
2013-09-24 18:49:00,87.7,42.0,29.80,NW,326,3.0,9.0,20,0.00,,,0.00,weatherlink.com 1.10,2013-09-24 23:49:00,
2013-09-24 19:04:00,86.6,43.0,29.81,NNW,333,3.0,5.0,22,0.00,,,0.00,weatherlink.com 1.10,2013-09-25 00:04:00,
2013-09-24 19:19:00,84.9,44.0,29.81,NNW,333,0.0,0.0,24,0.00,,,0.00,weatherlink.com 1.10,2013-09-25 00:19:00,
2013-09-24 19:34:00,82.9,43.0,29.81,NNW,336,0.0,0.0,24,0.00,,,0.00,weatherlink.com 1.10,2013-09-25 00:34:00,
2013-09-24 19:49:00,81.5,42.0,29.81,NNW,336,0.0,0.0,25,0.00,,,0.00,weatherlink.com 1.10,2013-09-25 00:49:00,
2013-09-24 20:04:00,80.1,42.0,29.81,NNW,336,0.0,0.0,26,0.00,,,0.00,weatherlink.com 1.10,2013-09-25 01:04:00,
2013-09-24 20:19:00,78.4,44.0,29.82,NNW,336,0.0,0.0,29,0.00,,,0.00,weatherlink.com 1.10,2013-09-25 01:19:00,
2013-09-24 20:34:00,77.0,43.0,29.82,NNW,336,0.0,0.0,30,0.00,,,0.00,weatherlink.com 1.10,2013-09-25 01:34:00,
2013-09-24 20:49:00,76.3,43.0,29.82,NNW,336,0.0,0.0,30,0.00,,,0.00,weatherlink.com 1.10,2013-09-25 01:49:00,
2013-09-24 21:04:00,75.4,43.0,29.82,NNW,336,0.0,0.0,32,0.00,,,0.00,weatherlink.com 1.10,2013-09-25 02:04:00,
2013-09-24 21:19:00,74.2,42.0,29.82,NNW,336,0.0,0.0,32,0.00,,,0.00,weatherlink.com 1.10,2013-09-25 02:19:00,
2013-09-24 21:34:00,73.1,43.0,29.83,NNW,336,0.0,0.0,34,0.00,,,0.00,weatherlink.com 1.10,2013-09-25 02:34:00,
2013-09-24 21:49:00,71.9,43.0,29.83,NNW,336,0.0,0.0,35,0.00,,,0.00,weatherlink.com 1.10,2013-09-25 02:49:00,
2013-09-24 22:04:00,71.2,44.0,29.83,NNW,336,0.0,0.0,38,0.00,,,0.00,weatherlink.com 1.10,2013-09-25 03:04:00,
2013-09-24 22:19:00,71.3,43.0,29.83,NNW,336,0.0,0.0,36,0.00,,,0.00,weatherlink.com 1.10,2013-09-25 03:19:00,
2013-09-24 22:34:00,70.3,43.0,29.83,NNW,336,0.0,0.0,38,0.00,,,0.00,weatherlink.com 1.10,2013-09-25 03:34:00,
2013-09-24 22:49:00,69.2,44.0,29.83,NNW,336,0.0,0.0,40,0.00,,,0.00,weatherlink.com 1.10,2013-09-25 03:49:00,
2013-09-24 23:04:00,70.1,43.0,29.84,NNW,336,0.0,0.0,38,0.00,,,0.00,weatherlink.com 1.10,2013-09-25 04:04:00,
2013-09-24 23:19:00,70.4,43.0,29.83,NNW,336,0.0,0.0,38,0.00,,,0.00,weatherlink.com 1.10,2013-09-25 04:19:00,
2013-09-24 23:34:00,69.3,43.0,29.83,NNW,336,0.0,0.0,39,0.00,,,0.00,weatherlink.com 1.10,2013-09-25 04:34:00,
2013-09-24 23:49:00,67.3,47.0,29.83,NNW,336,0.0,0.0,48,0.00,,,0.00,weatherlink.com 1.10,2013-09-25 04:49:00,